Flag for Colombia Weather past 2 weeks in Santa Marta, Colombia

Now
86 °F

Scattered clouds.


Feels Like: 97 °F
Forecast: 84 / 91 °F
Wind: 9 mph from Southwest

Location: Santa Marta / Simon Bolivar

Current Time: Sep 4, 2015 at 10:40:11 AM

Latest Report: Sep 4, 2015 at 10:00 AM


Visibility: N/A

Pressure: 29.82 "Hg

Humidity: 75%

Dew point: 77 °F

Location of Santa MartaLocation

Historic Weather in Santa Marta — Graph

°F

Santa Marta temperature yesterday

Maximum temperature yesterday: 91 °F (at 2:00 PM)
Minimum temperature yesterday: 81 °F (at 7:00 AM)
Average temperature yesterday: 86 °F

Past Weeks' High & Low Weather Summary

 TemperatureHumidityPressure
High99 °F (Aug 20, 3:00 PM)94% (Aug 22, 6:00 AM)29.89 "Hg (Aug 22, 6:00 AM)
Low77 °F (Aug 22, 6:00 AM)44% (Aug 20, 3:00 PM)29.67 "Hg (Aug 24, 5:00 PM)
Average86 °F74%29.78 "Hg
* Reported Aug 20 9:00 AM — Sep 4 9:00 AM, Santa Marta, Weather by CustomWeather, © 2015

Note: Actual official high and low records may vary slightly from our data, if they occured in-between our weather recording intervals... More about our weather records

Advertising

Santa Marta weather history for previous 24 hours

 ConditionsComfort  
Time TempWeatherWind HumidityBarometerVisibility
9:00 AM
Fri, Sep 4
86 °FScattered clouds.5 mph70%29.82 "HgN/A
8:00 AM86 °FScattered clouds.5 mph66%29.80 "HgN/A
7:00 AM81 °FScattered clouds.No wind79%29.80 "HgN/A
6:00 AM79 °FScattered clouds.No wind84%29.80 "HgN/A
11:00 PM
Thu, Sep 3
82 °FPassing clouds.12 mph74%29.85 "HgN/A
10:00 PM82 °FPassing clouds.7 mph74%29.84 "HgN/A
9:00 PM82 °FPassing clouds.7 mph79%29.82 "HgN/A
8:00 PM84 °FPassing clouds.7 mph79%29.78 "HgN/A
7:00 PM84 °FPassing clouds.7 mph79%29.77 "HgN/A
6:00 PM84 °FPartly sunny.12 mph79%29.76 "HgN/A
5:00 PM86 °FScattered clouds.N/A79%29.75 "HgN/A
4:00 PM88 °FScattered clouds.21 mph75%29.76 "HgN/A
3:00 PM90 °FScattered clouds.12 mph67%29.75 "HgN/A
2:00 PM91 °FScattered clouds.12 mph63%29.75 "HgN/A
1:00 PM88 °FScattered clouds.7 mph75%29.79 "HgN/A
12:00 PM90 °FScattered clouds.7 mph71%29.80 "Hg6 mi
11:00 AM90 °FScattered clouds.7 mph71%29.83 "Hg6 mi
10:00 AM88 °FScattered clouds.5 mph79%29.83 "HgN/A
Weather by CustomWeather, © 2015

See weather overviewHow to use our weather pages